Location: ??????
(38.1303°N, 24.0039°E)
Time: 02:21:15
(UTC+00:00)

Alouette 2 Rocket - Visible Passes

Search period start: 17 October 2021 00:00
Search period end: 27 October 2021 00:00
Orbit: 501 x 2650 km, 79.8° (Epoch: 15 October)

Date Brightness Start Highest point End Pass type
(mag) Time Alt. Az. Time Alt. Az. Time Alt. Az.
17 Oct 7.1 01:43:45 35° NW 01:43:45 35° NW 01:56:05 10° N visible
17 Oct 8.0 21:21:26 17° ENE 21:21:26 17° ENE 21:26:50 10° NE visible
17 Oct 7.0 23:19:12 51° NE 23:19:12 51° NE 23:29:35 10° NNE visible
18 Oct 7.0 01:16:58 41° NW 01:16:58 41° NW 01:28:42 10° N visible
18 Oct 7.8 03:14:58 10° WNW 03:19:14 11° NW 03:23:30 10° NNW visible
18 Oct 8.2 20:54:38 12° ENE 20:54:38 12° ENE 20:57:07 10° NE visible
18 Oct 7.2 22:52:24 43° NE 22:52:24 43° NE 23:01:46 10° NNE visible
19 Oct 6.9 00:50:10 46° NW 00:50:10 46° NW 01:01:16 10° N visible
19 Oct 7.7 02:47:56 14° NW 02:50:20 15° NW 02:57:44 10° NNW visible
19 Oct 7.4 22:25:35 35° NE 22:25:35 35° NE 22:33:52 10° NNE visible
20 Oct 6.9 00:23:21 49° NNW 00:23:21 49° NNW 00:33:45 10° N visible
20 Oct 7.6 02:21:07 19° NW 02:21:38 19° NW 02:31:04 10° N visible
20 Oct 7.6 21:58:45 29° NE 21:58:45 29° NE 22:05:51 10° NNE visible
20 Oct 7.0 23:56:30 50° N 23:56:30 50° N 00:06:11 10° N visible
21 Oct 7.5 01:54:17 24° NW 01:54:17 24° NW 02:04:03 10° N visible
21 Oct 7.8 21:31:54 23° NE 21:31:54 23° NE 21:37:40 10° NNE visible
21 Oct 7.1 23:29:40 47° N 23:29:40 47° N 23:38:33 10° N visible
22 Oct 7.4 01:27:26 28° NW 01:27:26 28° NW 01:36:52 10° N visible
22 Oct 7.9 21:05:02 18° NE 21:05:02 18° NE 21:09:12 10° NNE visible
22 Oct 7.2 23:02:47 43° NNE 23:02:47 43° NNE 23:10:52 10° NNE visible
23 Oct 7.3 01:00:33 32° NW 01:00:33 32° NW 01:09:34 10° N visible
23 Oct 8.1 20:38:08 13° NE 20:38:08 13° NE 20:40:19 10° NE visible
23 Oct 7.3 22:35:54 37° NNE 22:35:54 37° NNE 22:43:06 10° NNE visible
24 Oct 7.2 00:33:40 35° NNW 00:33:40 35° NNW 00:42:09 10° N visible
24 Oct 7.9 02:31:25 11° NW 02:32:30 11° NW 02:36:39 10° NNW visible
24 Oct 7.5 22:09:00 32° NNE 22:09:00 32° NNE 22:15:16 10° NNE visible
25 Oct 7.2 00:06:45 37° NNW 00:06:45 37° NNW 00:14:40 10° N visible
25 Oct 7.8 02:04:31 15° NW 02:04:31 15° NW 02:10:56 10° NNW visible
25 Oct 7.7 21:42:04 26° NE 21:42:04 26° NE 21:47:19 10° NNE visible
25 Oct 7.3 23:39:50 38° N 23:39:50 38° N 23:47:09 10° N visible
26 Oct 7.7 01:37:36 18° NW 01:37:36 18° NW 01:44:17 10° NNW visible
26 Oct 7.8 21:15:08 21° NE 21:15:08 21° NE 21:19:15 10° NNE visible
26 Oct 7.3 23:12:53 36° N 23:12:53 36° N 23:19:33 10° N visible
